When you browse on this site, cookies collect data to enhance your experience and personalize the content and advertising you see.
Visit our Privacy Policy to learn more. By continuing to use the site, you agree to this use of cookies and data.

Hourly Weather Malanville

Today, 7 July, Tuesday

Time Temperature Precipitation Wind Pressure Humidity
00:00 +29°C° 0 mm 3 mps 742 mmHg 70%
01:00 +29°C° 0 mm 4 mps 741 mmHg 73%
02:00 +29°C° 0 mm 4 mps 741 mmHg 76%
03:00 +28°C° 0 mm 4 mps 740 mmHg 78%
04:00 +28°C° 0 mm 3 mps 741 mmHg 80%
05:00 +28°C° 0 mm 2 mps 741 mmHg 81%
06:00 +28°C° 0 mm 2 mps 741 mmHg 83%
07:00 +30°C° 0 mm 3 mps 742 mmHg 75%
08:00 +31°C° 0 mm 3 mps 742 mmHg 67%
09:00 +34°C° 0 mm 4 mps 742 mmHg 59%
10:00 +36°C° 0 mm 4 mps 742 mmHg 52%
11:00 +37°C° 0 mm 4 mps 742 mmHg 46%
12:00 +40°C° 0 mm 4 mps 742 mmHg 40%
13:00 +39°C° 0 mm 3 mps 741 mmHg 36%
14:00 +40°C° 0 mm 2 mps 740 mmHg 33%
15:00 +41°C° 0 mm 1 mps 739 mmHg 30%
16:00 +40°C° 0 mm 2 mps 739 mmHg 33%
17:00 +39°C° 0 mm 2 mps 739 mmHg 36%
18:00 +38°C° 0 mm 2 mps 739 mmHg 40%
19:00 +36°C° 0 mm 3 mps 740 mmHg 44%
20:00 +35°C° 0 mm 4 mps 740 mmHg 49%
21:00 +34°C° 0 mm 5 mps 741 mmHg 53%
22:00 +33°C° 0 mm 5 mps 741 mmHg 57%
23:00 +32°C° 0 mm 5 mps 741 mmHg 61%

Tomorrow, 8 July, Wednesday

Time Temperature Precipitation Wind Pressure Humidity
00:00 +30°C° 0 mm 5 mps 741 mmHg 66%
01:00 +30°C° 0 mm 5 mps 741 mmHg 68%
02:00 +29°C° 0 mm 5 mps 741 mmHg 71%
03:00 +28°C° 0 mm 5 mps 741 mmHg 74%
04:00 +28°C° 0.3 mm 5 mps 741 mmHg 76%
05:00 +27°C° 0.3 mm 5 mps 741 mmHg 78%
06:00 +27°C° 0.3 mm 4 mps 742 mmHg 80%
07:00 +29°C° 0 mm 4 mps 742 mmHg 73%
08:00 +32°C° 0 mm 5 mps 742 mmHg 65%
09:00 +33°C° 0 mm 5 mps 743 mmHg 58%
10:00 +34°C° 0 mm 5 mps 742 mmHg 54%
11:00 +35°C° 0 mm 5 mps 742 mmHg 51%
12:00 +36°C° 0 mm 5 mps 742 mmHg 48%
13:00 +37°C° 0 mm 4 mps 742 mmHg 45%
14:00 +38°C° 0 mm 4 mps 741 mmHg 42%
15:00 +38°C° 0 mm 4 mps 740 mmHg 40%
16:00 +37°C° 0 mm 3 mps 740 mmHg 43%
17:00 +37°C° 0 mm 2 mps 741 mmHg 46%
18:00 +36°C° 0 mm 2 mps 741 mmHg 49%
19:00 +35°C° 0.2 mm 2 mps 741 mmHg 53%
20:00 +34°C° 0.2 mm 2 mps 742 mmHg 57%
21:00 +33°C° 0.2 mm 3 mps 742 mmHg 61%
22:00 +31°C° 0.8 mm 3 mps 743 mmHg 67%
23:00 +30°C° 0.8 mm 2 mps 743 mmHg 72%

Day after tomorrow, 9 July, Thursday

Time Temperature Precipitation Wind Pressure Humidity
00:00 +29°C° 0.8 mm 2 mps 743 mmHg 78%
01:00 +29°C° 0.1 mm 3 mps 743 mmHg 80%
02:00 +28°C° 0.1 mm 3 mps 743 mmHg 81%
03:00 +28°C° 0.1 mm 3 mps 742 mmHg 83%
04:00 +27°C° 0 mm 3 mps 743 mmHg 84%
05:00 +27°C° 0 mm 4 mps 743 mmHg 85%
06:00 +27°C° 0 mm 4 mps 743 mmHg 86%
07:00 +28°C° 0 mm 4 mps 743 mmHg 78%
08:00 +30°C° 0 mm 4 mps 744 mmHg 71%
09:00 +32°C° 0 mm 4 mps 744 mmHg 63%
10:00 +34°C° 0 mm 3 mps 744 mmHg 57%
11:00 +36°C° 0 mm 3 mps 743 mmHg 50%
12:00 +37°C° 0 mm 3 mps 743 mmHg 43%
13:00 +38°C° 0 mm 3 mps 742 mmHg 41%
14:00 +38°C° 0 mm 3 mps 742 mmHg 39%
15:00 +39°C° 0 mm 3 mps 741 mmHg 37%
16:00 +38°C° 0 mm 3 mps 741 mmHg 40%
17:00 +37°C° 0 mm 3 mps 741 mmHg 43%
18:00 +36°C° 0 mm 3 mps 741 mmHg 47%
19:00 +35°C° 0 mm 3 mps 741 mmHg 49%
20:00 +34°C° 0 mm 3 mps 742 mmHg 51%
21:00 +33°C° 0 mm 3 mps 742 mmHg 54%
22:00 +33°C° 0 mm 3 mps 742 mmHg 57%
23:00 +31°C° 0 mm 3 mps 742 mmHg 61%

10 July, Friday

Time Temperature Precipitation Wind Pressure Humidity
00:00 +30°C° 0 mm 3 mps 743 mmHg 65%
01:00 +30°C° 0 mm 4 mps 743 mmHg 68%
02:00 +29°C° 0 mm 4 mps 743 mmHg 71%
03:00 +29°C° 0 mm 4 mps 743 mmHg 74%
04:00 +29°C° 0 mm 3 mps 743 mmHg 74%
05:00 +28°C° 0 mm 3 mps 743 mmHg 75%
06:00 +28°C° 0 mm 3 mps 744 mmHg 75%
07:00 +28°C° 2.5 mm 3 mps 744 mmHg 78%
08:00 +27°C° 2.5 mm 3 mps 744 mmHg 82%
09:00 +27°C° 2.5 mm 3 mps 745 mmHg 85%
10:00 +28°C° 0.4 mm 4 mps 744 mmHg 79%
11:00 +29°C° 0.4 mm 6 mps 744 mmHg 73%
12:00 +32°C° 0.4 mm 7 mps 743 mmHg 68%
13:00 +33°C° 0 mm 6 mps 742 mmHg 62%
14:00 +34°C° 0 mm 5 mps 742 mmHg 57%
15:00 +35°C° 0 mm 4 mps 741 mmHg 52%
16:00 +34°C° 0 mm 4 mps 741 mmHg 55%
17:00 +33°C° 0 mm 3 mps 741 mmHg 57%
18:00 +31°C° 0 mm 3 mps 742 mmHg 60%
19:00 +31°C° 0 mm 2 mps 742 mmHg 62%
20:00 +30°C° 0 mm 2 mps 743 mmHg 64%
21:00 +29°C° 0 mm 2 mps 743 mmHg 66%
22:00 +29°C° 0 mm 2 mps 743 mmHg 68%
23:00 +29°C° 0 mm 2 mps 743 mmHg 70%

11 July, Saturday

Time Temperature Precipitation Wind Pressure Humidity
00:00 +28°C° 0 mm 1 mps 743 mmHg 71%
01:00 +28°C° 0 mm 2 mps 743 mmHg 73%
02:00 +28°C° 0 mm 2 mps 743 mmHg 74%
03:00 +27°C° 0 mm 3 mps 742 mmHg 75%
04:00 +27°C° 0 mm 3 mps 743 mmHg 76%
05:00 +27°C° 0 mm 4 mps 743 mmHg 77%
06:00 +27°C° 0 mm 4 mps 743 mmHg 77%
07:00 +29°C° 0.1 mm 4 mps 744 mmHg 74%
08:00 +30°C° 0.1 mm 5 mps 744 mmHg 70%
09:00 +32°C° 0.1 mm 5 mps 745 mmHg 66%
10:00 +33°C° 0.5 mm 5 mps 745 mmHg 62%
11:00 +34°C° 0.5 mm 6 mps 744 mmHg 58%
12:00 +34°C° 0.5 mm 6 mps 744 mmHg 55%
13:00 +34°C° 0 mm 6 mps 743 mmHg 55%
14:00 +33°C° 0 mm 5 mps 742 mmHg 55%
15:00 +33°C° 0 mm 5 mps 741 mmHg 55%
16:00 +32°C° 0 mm 5 mps 741 mmHg 57%
17:00 +32°C° 0 mm 4 mps 741 mmHg 59%
18:00 +30°C° 0 mm 3 mps 741 mmHg 61%
19:00 +30°C° 0 mm 3 mps 742 mmHg 64%
20:00 +29°C° 0 mm 2 mps 742 mmHg 66%
21:00 +28°C° 0 mm 2 mps 743 mmHg 69%
22:00 +28°C° 0 mm 3 mps 743 mmHg 70%
23:00 +27°C° 0 mm 3 mps 743 mmHg 72%

12 July, Sunday

Time Temperature Precipitation Wind Pressure Humidity
00:00 +27°C° 0 mm 4 mps 743 mmHg 73%
01:00 +27°C° 0 mm 4 mps 743 mmHg 73%
02:00 +27°C° 0 mm 4 mps 742 mmHg 73%
03:00 +27°C° 0 mm 4 mps 742 mmHg 73%
04:00 +26°C° 0.1 mm 4 mps 742 mmHg 75%
05:00 +26°C° 0.1 mm 4 mps 743 mmHg 77%
06:00 +26°C° 0.1 mm 3 mps 743 mmHg 79%
07:00 +27°C° 0.4 mm 3 mps 744 mmHg 76%
08:00 +28°C° 0.4 mm 2 mps 745 mmHg 73%
09:00 +29°C° 0.4 mm 2 mps 746 mmHg 69%
10:00 +31°C° 0.1 mm 2 mps 745 mmHg 64%
11:00 +33°C° 0.1 mm 3 mps 745 mmHg 58%
12:00 +35°C° 0.1 mm 4 mps 744 mmHg 52%
13:00 +35°C° 0.2 mm 4 mps 743 mmHg 51%
14:00 +35°C° 0.2 mm 5 mps 742 mmHg 51%
15:00 +36°C° 0.2 mm 5 mps 742 mmHg 50%
16:00 +35°C° 0 mm 4 mps 742 mmHg 53%
17:00 +34°C° 0 mm 3 mps 742 mmHg 56%
18:00 +32°C° 0 mm 2 mps 742 mmHg 59%
19:00 +31°C° 0 mm 2 mps 742 mmHg 61%
20:00 +31°C° 0 mm 3 mps 742 mmHg 62%
21:00 +30°C° 0 mm 3 mps 742 mmHg 64%
22:00 +30°C° 0 mm 3 mps 742 mmHg 67%
23:00 +29°C° 0 mm 3 mps 743 mmHg 69%
Show more